Location: Frankfurt am Main
(50.1109°N, 8.6821°E)
Time: 06:55:20
(UTC+01:00)

ISS - Pass Details

Date: 29 October 2021
Orbit: 417 x 422 km, 51.6° (Epoch: 04 December)

Event Time Altitude Azimuth Distance (km) Brightness Sun altitude
Exits shadow 06:24:19 53° 263° (W) 520 -3.7 -17.5°
Maximum altitude 06:25:01 85° 346° (NNW) 426 -3.9 -17.4°
Drops below altitude 10° 06:28:24 10° 75° (ENE) 1,501 0.2 -16.8°
Sets 06:30:29 0° 76° (ENE) 2,365 1.6 -16.5°
